Lapse_Rate
5.0 4.9 5.1 5.3 5.7 5.7 5.4 5.2 5.3 5.6 5.5 5.8 5.6 5.5 5.5 5.5 5.5 5.5 5.7 5.7 5.8 5.8 5.9 6.0 6.0 6.1 5.9 5.9 5.9 5.9 6.0 6.1 6.2 6.2 5.9 5.8 6.2 6.5 6.5 6.6 6.6 6.5 6.4
5.0 4.9 5.0 5.2 5.3 5.5 5.6 5.5 5.3 5.4 5.6 5.6 5.6 5.5 5.5 5.6 5.5 5.5 5.5 5.7 5.8 5.8 5.8 5.9 5.9 5.9 6.0 6.0 6.0 6.1 6.1 6.3 6.2 6.3 6.1 6.1 6.1 6.3 6.4 6.5 6.4 6.3 6.2
5.2 5.1 5.1 5.0 5.2 5.5 5.5 5.5 5.4 5.3 5.5 5.8 5.5 5.4 5.6 5.6 5.6 5.5 5.4 5.5 5.8 5.8 5.7 5.7 5.6 5.7 5.8 6.0 6.0 5.9 5.9 6.0 6.1 6.2 6.0 5.8 5.9 5.9 6.3 6.3 6.2 6.2 6.0
5.4 5.4 5.2 4.9 5.0 5.2 5.6 5.5 5.5 5.3 5.3 5.3 5.6 5.7 5.5 5.5 5.4 5.6 5.6 5.4 5.5 5.6 5.7 5.6 5.5 5.4 5.5 5.6 5.7 5.9 5.9 5.9 5.9 5.8 5.8 5.2 4.7 4.8 5.6 5.8 6.0 6.0 6.2
5.2 5.4 5.2 5.5 5.1 5.2 5.2 5.4 5.5 5.3 5.2 5.4 5.4 5.6 5.6 5.4 5.5 5.6 5.7 5.7 5.7 5.3 5.3 5.5 5.6 5.6 5.7 5.8 5.8 5.7 5.8 5.8 5.8 5.8 5.9 5.6 4.7 5.2 5.8 5.9 5.9 6.0 6.0
5.5 5.0 5.0 5.1 5.3 5.3 5.1 5.3 5.2 5.0 4.9 5.2 5.3 5.2 5.5 5.7 5.7 5.5 5.5 5.6 5.6 5.5 5.4 5.4 5.4 5.6 5.9 5.9 5.9 5.8 5.7 5.9 5.9 5.8 5.8 5.9 5.8 5.7 5.7 5.8 5.9 6.1 6.1
5.1 4.9 4.7 5.1 5.0 5.0 5.0 4.8 5.0 5.1 5.0 4.9 4.9 5.3 5.4 5.5 5.4 5.6 5.8 5.7 5.7 5.5 5.5 5.5 5.4 5.7 5.4 5.6 5.6 5.7 5.7 5.8 6.0 5.9 6.0 5.9 5.8 5.6 5.8 5.9 5.9 6.0 6.3
5.4 5.1 4.8 5.4 5.2 4.8 4.8 5.0 4.8 5.1 5.0 4.9 5.0 5.2 5.3 5.2 5.4 5.4 5.3 5.6 5.5 5.6 5.7 5.5 5.4 5.5 5.5 5.5 5.6 5.5 5.6 5.6 5.8 5.9 5.8 5.8 5.7 5.7 5.6 5.7 5.9 5.9 6.1
6.0 5.8 5.6 5.4 4.7 5.0 4.8 5.0 4.7 5.1 4.7 4.7 5.1 4.9 5.4 5.6 5.7 5.7 5.5 5.4 5.5 5.5 5.5 5.8 5.6 5.7 5.6 5.5 5.5 5.5 5.6 5.6 5.5 5.7 5.8 5.9 5.9 5.7 5.5 5.7 5.8 5.7 5.9
6.3 6.4 6.2 6.0 6.1 5.5 5.5 5.6 5.3 5.1 5.1 4.9 5.4 5.3 5.1 5.4 5.4 5.4 5.2 5.5 5.4 5.4 5.5 5.4 5.7 5.7 5.9 5.9 5.8 5.8 5.7 5.7 5.8 5.8 5.7 5.8 5.8 5.9 5.8 5.4 5.6 5.6 5.7
6.5 6.4 6.4 6.1 5.9 6.0 6.1 5.9 5.8 5.3 5.1 5.2 5.1 4.9 5.5 6.0 5.6 5.1 4.9 4.8 5.2 5.5 5.4 5.7 5.8 5.6 5.7 5.8 6.0 6.0 6.0 6.1 6.1 6.0 6.0 5.7 5.6 5.6 5.6 5.5 5.4 5.3 5.4
5.6 5.7 5.7 5.7 5.8 6.0 6.0 5.9 5.8 5.8 5.7 5.5 5.6 5.6 5.3 5.5 5.5 5.3 4.8 4.9 5.1 5.2 5.8 5.8 5.8 5.8 5.8 5.6 5.6 5.9 6.1 5.9 5.7 5.8 5.9 5.8 5.7 5.6 5.4 5.4 5.6 5.6 5.5
5.5 5.7 5.6 5.8 5.7 6.1 6.0 6.0 5.9 5.9 5.9 5.7 5.6 5.7 5.7 5.7 5.6 5.1 5.0 4.9 5.0 6.1 5.7 5.5 6.0 5.7 5.5 5.7 5.7 5.4 5.6 5.9 6.0 6.2 6.2 6.1 5.8 5.6 5.5 5.4 5.5 5.5 5.6
5.8 5.9 6.0 6.1 6.0 6.1 6.2 6.2 6.3 6.1 6.2 6.3 6.2 6.2 6.2 6.2 6.0 5.7 5.7 5.7 5.9 6.2 6.2 6.2 5.7 5.8 5.9 5.9 5.8 5.7 5.8 5.6 5.8 6.2 6.5 6.5 6.3 6.1 5.9 5.9 6.0 5.8 5.7
5.8 5.8 5.8 5.9 5.9 6.1 6.2 6.3 6.2 6.2 6.2 6.2 6.1 5.9 6.0 6.1 6.2 6.2 6.1 6.0 6.1 6.2 6.1 6.1 6.0 5.8 5.8 5.7 5.7 5.7 5.7 5.6 5.7 5.5 5.8 6.0 6.0 5.9 5.8 6.0 6.0 6.0 6.0
5.9 6.0 6.1 6.1 6.1 6.1 6.2 6.1 6.2 6.1 6.2 6.1 6.0 5.8 5.8 5.9 5.8 5.8 5.9 5.9 5.9 5.8 5.6 5.5 5.5 5.5 5.5 5.5 5.3 5.3 5.3 5.3 5.2 5.2 5.1 5.3 5.5 5.7 5.7 5.6 5.6 5.5 5.5
5.8 5.8 5.8 5.8 5.9 5.9 5.9 6.0 6.1 6.1 6.0 6.0 5.8 5.8 5.7 5.6 5.7 5.7 5.6 5.6 5.5 5.6 5.7 5.7 5.5 5.4 5.4 5.6 5.6 5.5 5.4 5.4 5.4 5.4 5.3 5.2 5.0 5.0 5.2 5.3 5.4 5.6 5.7
5.8 5.8 5.8 5.8 5.9 5.7 5.7 5.8 5.9 5.9 5.8 5.8 5.7 5.7 5.5 5.5 5.4 5.5 5.5 5.5 5.5 5.6 5.5 5.6 5.7 5.8 5.8 5.7 5.5 5.5 5.5 5.5 5.6 5.5 5.5 5.4 5.7 5.6 5.3 5.3 5.2 5.3 5.3
5.6 5.5 5.6 5.6 5.5 5.5 5.5 5.7 5.7 5.6 5.8 5.7 5.6 5.5 5.5 5.5 5.5 5.4 5.4 5.4 5.5 5.6 5.6 5.5 5.5 5.5 5.5 5.5 5.5 5.5 5.3 5.1 5.2 5.3 5.4 5.4 5.4 5.5 5.6 5.8 5.8 5.7 5.7
5.3 5.2 5.2 5.3 5.2 5.3 5.3 5.8 5.6 5.5 5.5 5.5 5.3 5.2 5.4 5.3 5.3 5.2 5.1 5.0 5.0 5.0 5.2 5.3 5.3 5.3 5.4 5.4 5.4 5.5 5.5 5.6 5.5 5.5 5.4 5.3 5.4 5.5 5.6 5.5 5.7 6.0 6.0
5.8 5.8 5.8 5.5 5.7 5.6 5.6 5.6 5.4 5.3 5.3 5.2 5.2 5.1 5.1 5.2 5.2 5.2 5.2 5.2 5.2 5.2 5.2 5.1 5.1 5.1 5.1 5.2 5.3 5.4 5.5 5.7 5.7 5.8 5.9 5.9 5.8 5.7 5.5 5.4 5.4 5.6 5.8
5.9 5.8 5.8 5.8 5.7 5.5 5.4 5.4 5.4 5.4 5.4 5.4 5.4 5.5 5.5 5.5 5.4 5.4 5.4 5.4 5.4 5.4 5.4 5.4 5.5 5.5 5.6 5.7 5.7 5.8 5.9 6.0 6.0 6.0 5.9 5.9 5.8 5.7 5.6 5.4 5.1 4.9 4.7
5.6 5.6 5.6 5.6 5.6 5.6 5.5 5.4 5.4 5.4 5.4 5.5 5.5 5.5 5.7 5.6 5.6 5.6 5.6 5.7 5.8 5.9 6.0 6.1 6.2 6.2 6.2 6.1 6.0 5.9 5.8 5.7 5.7 5.5 5.4 5.3 5.2 5.2 5.2 5.2 5.2 5.3 5.4
5.6 5.7 5.7 5.6 5.5 5.5 5.5 5.4 5.4 5.4 5.4 5.4 5.5 5.6 5.6 5.6 5.7 5.8 6.0 6.1 6.2 6.2 6.3 6.3 6.3 6.3 6.2 6.0 5.9 5.9 5.7 5.4 5.2 5.1 5.0 5.1 5.1 4.9 4.6 4.4 4.2 4.2 4.4
5.7 5.9 5.8 5.7 5.7 5.7 5.7 5.7 5.7 5.7 5.7 5.6 5.7 5.8 5.9 5.9 6.0 6.1 6.2 6.3 6.4 6.4 6.4 6.3 6.2 6.1 5.9 5.9 5.9 5.8 5.7 5.5 5.3 5.0 4.9 4.9 4.6 4.4 4.5 4.3 4.1 4.2 4.3
6.1 6.0 5.9 5.7 5.9 6.0 6.1 6.1 6.1 6.1 6.0 5.9 5.8 5.8 5.9 6.0 6.2 6.4 6.5 6.6 6.6 6.5 6.4 6.3 6.1 6.0 5.9 5.8 5.8 5.8 5.5 5.2 5.0 5.0 4.9 4.7 4.6 4.6 4.7 4.8 4.7 4.6 4.8
Wind_Speed
12 11 10 8 7 6 5 6 2 4 6 6 6 6 7 7 7 6 6 4 7 6 5 6 6 5 7 6 5 6 6 7 8 8 8 7 9 9 13 14 15 15 11
10 10 11 10 9 8 6 7 4 6 5 6 5 7 6 8 7 7 8 5 7 7 6 6 6 5 5 7 6 6 8 8 8 9 8 8 7 8 8 10 11 15 12
7 10 11 11 11 9 8 7 7 6 6 6 4 6 5 6 8 7 6 5 6 5 5 5 6 6 5 7 5 6 6 5 6 8 9 9 7 8 8 8 9 9 14
7 8 9 10 10 8 6 6 7 7 7 7 6 5 6 6 6 6 6 5 6 6 6 6 6 7 7 7 7 7 7 6 7 8 9 9 8 7 7 9 10 9 10
5 6 7 7 7 8 6 4 4 4 4 5 6 6 5 5 4 5 6 6 5 6 5 7 8 5 5 5 6 6 7 8 7 8 9 9 9 9 9 9 10 10 11
8 7 7 7 7 6 7 5 4 4 2 3 4 5 3 5 7 7 6 6 6 6 5 6 6 6 8 9 8 8 9 8 9 8 10 10 9 9 9 9 10 10 12
8 8 8 9 6 5 5 2 4 4 4 4 3 8 7 6 12 3 4 6 5 5 4 5 4 6 9 8 5 10 12 13 13 9 11 11 12 10 11 12 11 12 12
8 8 8 7 8 4 3 4 3 4 5 4 9 9 9 10 18 11 5 8 9 9 9 10 8 8 8 10 10 9 10 9 6 5 9 11 11 11 10 11 12 13 12
9 9 8 7 6 7 7 5 4 2 7 9 9 10 11 12 22 21 7 7 8 7 8 9 7 7 10 11 8 8 9 8 6 9 10 15 18 19 15 8 10 8 12
7 9 8 7 9 7 7 7 5 8 8 7 11 11 11 13 25 26 18 4 5 5 6 7 15 10 11 12 7 6 8 9 10 11 11 11 12 11 18 11 8 8 9
7 7 7 7 7 7 6 7 9 9 8 9 11 10 12 10 14 21 24 9 6 4 4 4 7 15 12 10 8 7 8 9 10 8 7 7 6 6 6 9 11 9 9
6 6 6 5 7 7 9 8 9 9 9 9 8 7 7 8 15 15 15 10 14 5 5 5 5 16 16 13 10 8 11 11 6 6 7 8 8 8 8 13 15 15 15
5 7 7 7 7 7 8 8 8 6 6 4 4 4 5 5 5 8 5 11 13 6 5 10 11 13 11 10 6 12 13 6 6 6 6 7 7 8 12 10 13 15 16
6 6 5 6 5 5 5 4 4 4 4 4 4 4 4 4 5 7 7 7 6 6 9 5 6 10 11 6 6 6 5 6 6 7 8 8 8 8 9 9 9 10 11
6 6 6 5 6 7 9 7 7 9 9 3 4 5 3 4 6 7 7 7 7 7 9 3 4 5 6 7 7 7 8 8 8 8 8 9 9 10 9 9 10 11 11
6 5 4 6 6 7 8 9 18 14 17 17 18 12 8 9 6 8 9 9 11 13 1 5 5 6 7 7 7 9 8 8 9 10 9 10 10 10 11 11 10 11 12
4 5 5 4 5 6 6 7 8 7 11 13 14 13 13 8 8 9 10 12 11 9 5 5 5 6 7 8 8 9 9 8 10 8 9 9 10 11 12 11 11 11 12
5 4 4 5 5 5 5 5 6 6 6 6 6 7 8 4 5 10 15 9 3 6 6 6 6 7 6 6 7 7 8 9 9 10 12 11 10 10 11 12 12 13 13
6 5 5 5 5 5 5 6 5 5 5 5 7 6 7 6 6 6 12 6 5 6 6 6 6 6 7 8 8 8 9 9 9 9 7 9 10 11 12 12 13 14 13
6 3 4 7 7 6 5 5 5 5 5 4 4 4 2 4 3 4 5 5 5 5 5 5 6 6 7 7 8 8 9 10 10 10 11 10 11 11 11 13 12 13 13
7 7 3 6 6 5 5 5 4 4 4 4 5 5 6 3 3 3 4 4 4 5 5 5 6 6 6 6 8 8 9 10 10 10 10 11 12 13 13 12 13 12 12
7 7 7 6 5 5 5 5 5 5 5 4 5 6 8 4 2 2 2 2 3 3 4 5 5 7 8 8 8 8 9 10 9 10 10 11 11 12 13 14 15 15 14
8 8 8 7 7 6 6 6 6 6 5 4 4 3 4 1 0 0 1 2 2 3 4 5 5 6 7 9 11 12 9 9 12 15 11 12 12 12 13 14 15 15 15
10 10 9 9 8 8 9 8 7 5 5 5 5 4 4 3 2 1 3 3 4 4 5 6 7 8 7 8 9 10 11 12 15 18 19 13 12 13 12 13 13 17 17
11 11 11 10 10 10 9 9 9 8 8 7 6 5 5 5 4 4 4 4 4 5 6 7 8 9 9 10 11 11 10 17 20 21 19 19 16 17 14 12 14 14 17
11 11 11 11 11 10 11 10 10 9 8 8 7 6 6 6 5 5 5 6 6 6 8 8 9 11 11 11 11 10 18 22 21 24 21 19 12 12 13 14 18 13 16
Wind_Direction
199 198 214 203 210 209 214 233 257 239 195 184 206 205 217 216 209 210 246 218 225 226 256 248 248 268 271 282 274 278 279 279 285 295 320 322 321 312 326 323 311 303 332
201 210 204 206 208 215 217 236 213 217 208 221 207 209 211 219 208 230 236 215 222 223 229 246 253 245 246 249 264 268 302 314 293 299 298 299 303 317 311 307 312 315 331
212 209 216 198 212 222 221 221 233 235 234 245 206 215 212 210 193 206 233 242 239 241 246 239 253 260 260 291 295 296 281 255 257 283 310 295 314 289 320 297 290 307 300
223 214 215 219 212 214 215 215 221 220 235 221 216 205 214 188 181 197 200 222 245 244 243 251 251 257 260 265 272 298 264 283 274 272 278 295 297 298 283 316 330 319 332
173 195 183 168 173 164 157 166 180 200 205 223 214 212 193 200 197 215 212 225 234 240 242 248 243 270 349 296 283 270 288 264 277 285 288 300 310 351 321 317 304 325 310
149 132 111 109 94 90 121 131 130 116 135 186 184 193 204 82 8 16 310 255 245 255 254 251 269 186 234 236 243 255 274 274 272 279 290 303 298 289 304 310 314 315 310
161 141 136 117 105 88 70 101 111 106 103 102 114 96 65 31 357 354 286 246 239 251 270 285 275 42 16 339 283 237 236 229 234 273 283 286 297 299 304 298 306 308 302
107 118 131 136 127 117 99 86 99 110 106 96 83 79 62 37 1 355 300 57 63 61 56 53 45 38 18 344 316 310 309 304 276 254 270 292 304 319 309 302 298 289 287
113 103 106 101 111 138 145 145 123 45 74 89 91 84 69 41 16 360 346 101 94 83 80 58 50 42 7 348 330 332 319 312 324 341 302 288 279 279 274 293 288 312 298
94 110 111 122 135 144 136 134 136 97 100 98 96 89 72 59 26 18 359 68 81 102 106 113 69 35 357 349 343 340 322 330 324 320 309 294 266 264 240 237 302 314 308
76 81 100 116 116 118 109 122 116 113 103 100 98 83 70 51 52 33 9 32 5 53 48 59 50 12 351 332 315 357 331 310 299 287 304 308 320 317 335 16 351 323 307
106 90 83 92 113 113 118 113 118 126 122 122 129 126 94 68 55 40 13 7 2 33 10 24 12 350 328 314 311 325 287 276 304 330 345 349 347 341 336 330 321 317 313
113 107 105 104 103 104 110 123 123 120 113 90 102 89 83 60 48 61 14 2 10 355 7 328 313 293 289 304 286 300 289 320 337 336 340 338 339 328 316 314 325 325 306
119 112 115 107 95 91 91 84 92 107 111 119 122 116 95 75 27 355 352 354 7 359 347 333 315 277 275 273 318 327 320 348 344 340 340 327 328 324 322 327 326 324 319
128 125 132 120 102 85 55 39 82 46 25 83 65 48 25 56 36 349 342 349 348 348 317 346 17 2 4 5 358 1 352 357 347 353 335 329 327 326 324 331 327 316 314
145 155 132 139 137 122 111 89 58 67 62 59 48 42 90 62 14 346 344 330 313 311 351 23 32 17 11 5 355 353 2 1 358 329 331 335 332 328 330 326 320 323 316
137 144 135 154 140 146 143 136 121 97 90 85 79 69 56 41 17 358 340 327 284 298 62 50 35 22 5 354 355 349 348 350 333 327 320 325 322 324 322 319 318 322 319
145 35 157 140 146 150 151 154 155 153 145 135 102 77 88 72 9 345 329 312 67 40 28 24 18 10 9 358 350 350 341 336 340 341 334 325 325 325 319 318 318 316 314
176 168 155 151 149 146 153 149 140 141 130 130 143 196 162 190 226 267 293 37 34 35 26 17 9 2 359 352 349 340 337 332 324 314 308 312 319 319 310 311 311 309 316
195 92 199 156 170 169 164 149 139 130 124 109 98 53 40 195 79 45 45 33 28 22 14 5 4 357 355 349 345 335 331 330 331 332 330 322 315 325 321 315 310 307 306
177 171 245 186 180 174 164 151 152 153 144 140 117 63 346 343 52 44 26 28 13 4 1 356 352 347 343 342 338 333 327 329 328 328 323 322 323 316 319 304 298 301 297
191 186 196 201 184 186 185 178 181 175 171 171 153 143 224 255 71 44 21 349 356 351 348 340 327 329 325 331 323 321 323 318 318 317 315 313 309 307 305 304 300 298 298
208 202 200 211 203 179 194 207 200 202 194 194 191 181 187 150 238 306 321 312 315 297 304 292 296 300 306 309 308 309 308 308 312 315 311 307 303 302 301 298 296 297 297
214 215 215 212 207 207 208 214 215 232 251 216 211 215 223 232 257 239 266 299 296 298 298 306 304 289 299 297 299 301 302 310 312 302 301 299 291 288 287 285 284 284 287
228 219 220 218 215 213 222 226 217 219 213 229 236 233 237 235 249 255 264 270 281 291 294 301 298 304 303 318 308 306 315 315 309 304 299 298 290 287 282 277 276 278 280
220 227 228 230 219 223 221 223 223 223 226 230 231 238 248 257 261 263 265 266 274 292 303 298 294 299 302 306 305 320 311 304 305 306 303 300 292 288 290 284 280 281 280